Other Public Products
Issued by NWS Grand Forks, ND

Home | Current Version | Previous Version | Text Only | Print | Product List | Glossary Off
Versions: 1 2 3 4 5 6 7 8 9 10 11 12 13 14 15 16 17 18 19 20 21 22 23 24 25 26 27 28 29 30 31 32 33 34 35 36 37 38 39 40 41 42 43 44 45 46 47 48 49 50

000
FPUS83 KFGF 280010
OPUFGF
PRAIRIE TO PINES WEATHER ROUNDUP
NATIONAL WEATHER SERVICE EASTERN NORTH DAKOTA/GRAND FORKS ND
600 PM CST TUE JAN 27 2015

 **SATELLITE DATA USED TO AUGMENT SKY COVER AT AUTOMATED STATIONS**
 *****  WEATHER ACROSS EASTERN NORTH DAKOTA  *****

CITY           SKY/WX    TMP DP  RH WIND       PRES   REMARKS
GRAND FORKS    CLOUDY    32  30  92 S15G24    29.94S WCI  22
6HR MIN TEMP:  29; 6HR MAX TEMP:  32;

GRAND FORKS AF CLOUDY    31  29  91 S18       29.93S WCI  19
GRAND CITY NWS NOT AVBL
BUXTON         NOT AVBL
DEVILS LAKE    PTCLDY    34  30  86 SE13      29.83S WCI  25
6HR MIN TEMP:  34; 6HR MAX TEMP:  37;

FARGO          CLOUDY    33  29  85 SE18G28   29.96F WCI  22
6HR MIN TEMP:  30; 6HR MAX TEMP:  33;

WAHPETON ARPT  CLOUDY    32  30  93 SE21G26   29.99F WCI  20
$$

 *****  WEATHER ACROSS CENTRAL AND WESTERN NORTH DAKOTA  *****

CITY           SKY/WX    TMP DP  RH WIND       PRES   REMARKS
JAMESTOWN      PTCLDY    34  32  92 SE8       29.86S
6HR MIN TEMP:  34; 6HR MAX TEMP:  41;

BISMARCK       MOCLDY    42  32  67 SE6       29.82S
6HR MIN TEMP:  42; 6HR MAX TEMP:  53;

MINOT          MOCLDY    41  35  79 SW7       29.78S
6HR MIN TEMP:  41; 6HR MAX TEMP:  49;

MINOT AFB      MOCLDY    36  36 100 CALM      29.78S
6HR MIN TEMP:  36; 6HR MAX TEMP:  48;

GARRISON         N/A     41  36  82 CALM      29.79S
6HR MIN TEMP:  38; 6HR MAX TEMP:  49;

WILLISTON      MOCLDY    36  32  85 CALM      29.79S
6HR MIN TEMP:  35; 6HR MAX TEMP:  53;

DICKINSON      MOCLDY    48  35  60 W5        29.79F
6HR MIN TEMP:  47; 6HR MAX TEMP:  62;

HETTINGER      PTCLDY    47  32  56 CALM      29.83F
6HR MIN TEMP:  47; 6HR MAX TEMP:  64;

$$

 *****  OTHER OBSERVATIONS NORTHEAST NORTH DAKOTA  *****

CITY           SKY/WX    TMP DP  RH WIND       PRES   REMARKS
WALHALLA         N/A     32  32 100 S14G23    29.90S WCI  22
LANGDON        CLOUDY    32  30  93 SE13      29.85S WCI  22
CAVALIER       CLOUDY    32  30  93 S10G16    29.92S WCI  24
GRAFTON        NOT AVBL
CANDO          FAIR      32  32 100 SE8       29.83S WCI  25
FORT TOTTEN    NOT AVBL
ROLLA          FAIR      32  32 100 SE5       29.82S
RUGBY          FAIR      34  32  93 S8        29.80S
 ***** THE ABOVE OBSERVATIONS ARE NON NWS ARE NOT QUALITY
        CONTROLLED AND MAY MIS-REPORT RAIN FOR SNOW...
$$

 *****  OTHER OBSERVATIONS SOUTHEAST NORTH DAKOTA *****

CITY           SKY/WX    TMP DP  RH WIND       PRES   REMARKS
COOPERSTOWN    NOT AVBL
VALLEY CITY    MIX PCPN  30  30 100 S13       29.90S VSB 3/4 WCI  20
OAKES            N/A     36  36 100 SE12      29.90S
GWINNER        CLOUDY    32  32 100 CALM      29.93S VSB 1
BUFFALO        NOT AVBL
WYNDMERE         N/A     30  34 100 S13         N/A  WCI  20
 ***** THE ABOVE OBSERVATIONS ARE NON NWS ARE NOT QUALITY
       CONTROLLED AND MAY MIS-REPORT RAIN FOR SNOW...
$$

  *****  WEATHER ACROSS NORTHERN MINNESOTA  *****

CITY           SKY/WX    TMP DP  RH WIND       PRES   REMARKS
FLAG ISLAND    CLOUDY    28  27  93 SE8       29.99F WCI  20
WARROAD        CLOUDY    32  27  80 SE9       29.99F WCI  24
ROSEAU         MOCLDY    32  27  80 SE8       29.97F WCI  25
HALLOCK        CLOUDY    32  30  93 S12       29.94S WCI  23
THF RVR FALLS  MOCLDY    30  27  86 SE7       29.97F WCI  23
6HR MIN TEMP:  27; 6HR MAX TEMP:  34;

HALSTAD          N/A     33  28  85 S16         N/A  WCI  22
FOSSTON        MOCLDY    30  27  86 CALM      29.98S
BAUDETTE       CLOUDY    32  25  75 SE8       30.01S WCI  25
6HR MIN TEMP:  27; 6HR MAX TEMP:  32; 6HR PCP: TRACE;

WASKISH        CLOUDY    32  27  80 SE8       30.02F WCI  25
CROOKSTON      MOCLDY    32  30  93 S10       29.97F WCI  24
$$
  *****  WEATHER ACROSS CENTRAL AND WEST MINNESOTA  *****

CITY           SKY/WX    TMP DP  RH WIND       PRES   REMARKS
BEMIDJI        PTCLDY    31  27  85 SE8       30.01S WCI  23
PARK RAPIDS    CLOUDY    31  26  82 S16       30.02R WCI  20
6HR MIN TEMP:  30; 6HR MAX TEMP:  35;

WADENA         CLOUDY    30  27  86 SE12      30.02F WCI  21
DETROIT LAKES  CLOUDY    32  30  93 SE13      29.99F WCI  22
MOORHEAD       CLOUDY    34  34 100 S17G28    29.98F WCI  23
FERGUS FALLS   CLOUDY    30  30 100 SE16      30.03S WCI  19
ELBOW LAKE     CLOUDY    30  29  96 SE17G23   30.01R WCI  19
MORRIS MN      CLOUDY    32  30  93 SE20      30.00S WCI  20
STAPLES        CLOUDY    30  27  86 SE5       30.05S
WHEATON        CLOUDY    30  28  93 SE20      30.01S WCI  18
$$
  *****  WEATHER ELSEWHERE ACROSS MINNESOTA  *****

CITY           SKY/WX    TMP DP  RH WIND       PRES   REMARKS
DULUTH         CLOUDY    27  22  81 S7        30.10S WCI  19
6HR MIN TEMP:  27; 6HR MAX TEMP:  28;

INTRNTL FALLS  CLOUDY    30  24  78 SE6       30.06R WCI  24
6HR MIN TEMP:  26; 6HR MAX TEMP:  31;

ELY            CLOUDY    27  23  86 S3        30.09S
CLOQUET        CLOUDY    28  21  74 SE5       30.10S WCI  23
BRAINERD       CLOUDY    31  26  82 S8        30.07S WCI  23
6HR MIN TEMP:  31; 6HR MAX TEMP:  32;

HIBBING        CLOUDY    29  22  75 SE9       30.08F WCI  20
6HR MIN TEMP:  27; 6HR MAX TEMP:  30;

ALEXANDRIA     CLOUDY    31  28  89 SE13      30.03F WCI  21
6HR MIN TEMP:  30; 6HR MAX TEMP:  32;

SAINT CLOUD    CLOUDY    32  27  81 S9        30.08F WCI  24
6HR MIN TEMP:  32; 6HR MAX TEMP:  34;

MINNEAPOLIS    CLOUDY    32  25  75 SE7       30.14F
6HR MIN TEMP:  32; 6HR MAX TEMP:  33;

$$

  *****  WEATHER ACROSS SOUTH DAKOTA  *****

CITY           SKY/WX    TMP DP  RH WIND       PRES   REMARKS
SIOUX FALLS    PTCLDY    39  34  82 SE9       30.00S
6HR MIN TEMP:  32; 6HR MAX TEMP:  41;

BROOKINGS      NOT AVBL
WATERTOWN      CLEAR     33  30  88 S13       29.95S WCI  24
6HR MIN TEMP:  33; 6HR MAX TEMP:  37;

HURON          CLEAR     36  33  89 SE13      29.92F
6HR MIN TEMP:  36; 6HR MAX TEMP:  46;

SISSETON         N/A     32  32 100 S16       29.96S WCI  21
ABERDEEN       CLEAR     37  33  85 S10       29.90F
6HR MIN TEMP:  37; 6HR MAX TEMP:  44;

MITCHELL       CLEAR     40  37  89 SE12      29.94F
PIERRE         CLEAR     46  35  65 E8        29.84S
6HR MIN TEMP:  46; 6HR MAX TEMP:  59;

MOBRIDGE       CLEAR     44  33  65 E9        29.82S
RAPID CITY     CLEAR     58  30  34 E3        29.85F
6HR MIN TEMP:  58; 6HR MAX TEMP:  73;

$$

  *****  SOME WEATHER IN NEARBY STATES *****

CITY           SKY/WX    TMP DP  RH WIND       PRES   REMARKS
GLASGOW MT     PTCLDY    39  33  79 E7        29.78F
6HR MIN TEMP:  38; 6HR MAX TEMP:  51;

GREAT FALLS MT MOCLDY    54  27  35 S12       29.85S
6HR MIN TEMP:  54; 6HR MAX TEMP:  64;

CHEYENNE WY    MOCLDY    57  19  22 W8        30.06S
6HR MIN TEMP:  57; 6HR MAX TEMP:  70;

SCOTTSBLUFF NE   N/A    N/A N/A N/A MISG      29.95F
OMAHA NE       PTCLDY    47  31  53 SE10      30.04S
6HR MIN TEMP:  45; 6HR MAX TEMP:  54;

DES MOINES IA  PTCLDY    39  30  70 E12       30.15R
6HR MIN TEMP:  39; 6HR MAX TEMP:  47;

DAVENPORT IA   CLOUDY    26  20  77 SE5       30.23S WCI  20
6HR MIN TEMP:  26; 6HR MAX TEMP:  29;

CHICAGO IL     PTCLDY    26  15  63 NE8       30.23R WCI  18
6HR MIN TEMP:  26; 6HR MAX TEMP:  32;

EAU CLAIRE WI  MOCLDY    28  19  69 SE7       30.17F WCI  21
6HR MIN TEMP:  28; 6HR MAX TEMP:  31;

LA CROSSE WI   CLOUDY    30  22  72 SE7       30.20F WCI  23
6HR MIN TEMP:  30; 6HR MAX TEMP:  32;

$$

  *****  SOME NATIONAL WEATHER *****

CITY           SKY/WX    TMP DP  RH WIND       PRES   REMARKS
LA GUARDIA NY  CLOUDY    26  15  63 N14       29.72R WCI  14
6HR MIN TEMP:  25; 6HR MAX TEMP:  28;

RALEIGH NC     PTCLDY    35  13  40 CALM      29.88R



USA.gov is the U.S. government's official web portal to all federal, state and local government web resources and services.